Content
SEND FEEDBACK

Daily
Averages
Monthly
Summary
United States of America

SILER CITY, NORTH CAROLINA


Home > North America > United States > North Carolina
Elevation: 634 feet     Latitude: 35 42N     Longitude: 079 29W

WEATHER
 
SELECT A DAY
Number of Records: 306,382;   Date Range: 3/28/01 - 9/16/14
 
SHARE

PRINT THIS DATA

[ ← Previous Day ]
WEATHER ALMANAC - JANUARY 23, 2013
[ Next Day → ]
[ °C ]   °F
Weather ElementAverageHighLow
Temperature28.8 °F42.8 °F (4:35 pm)16.7 °F (7:55 am)
Dewpoint12.4 °F19 °F (6:35 pm)4.3 °F (11:55 am)
Humidity54.7 %88 % (7:55 am)26 % (12:35 pm)
Barometer30.26 in30.39 in (9:55 am)30.06 in (11:55 pm)
Wind Speed1.6 mph10.4 mph (12:55 pm)
Wind Gust17.3 mph (1:55 pm)
Weather ElementAverage
Visibility10 mi
Wind DirectionENE (62.8 °)

Weather ElementTotal
Precipitation---
Heating Degree Days35.3 (Base 65)
Averaged from 64 records on January 23, 2013
WEATHER CONDITIONS BREAKOUT
WIND DIRECTION BREAKOUT
WEATHER BY HOUR - JANUARY 23, 2013
[ °C ]   °F
Local TimeTemperatureDewpointHumidityBarometerVisibilityWind DirectionWind SpeedGust SpeedPrecipitationEventsConditions
12:35 AM27.7 °F9.1 °F46 %30.29 in10.0 miCalmOvercast
12:55 AM26.4 °F10.4 °F51 %30.29 in10.0 miCalmScattered Clouds
1:15 AM26.1 °F11.1 °F53 %30.29 in10.0 miCalmClear
1:35 AM24.3 °F12.0 °F60 %30.29 in10.0 miCalmClear
1:55 AM23.9 °F10.8 °F57 %30.29 in10.0 miCalmClear
2:15 AM22.8 °F12.2 °F64 %30.30 in10.0 miCalmClear
2:35 AM22.6 °F12.7 °F66 %30.31 in10.0 miCalmClear
2:55 AM21.7 °F11.8 °F66 %30.31 in10.0 miCalmClear
3:15 AM21.6 °F12.9 °F69 %30.31 in10.0 miCalmClear
3:35 AM21.0 °F13.5 °F73 %30.31 in10.0 miCalmClear
3:55 AM20.8 °F13.3 °F73 %30.31 in10.0 miCalmClear
4:15 AM19.4 °F12.6 °F75 %30.31 in10.0 miCalmClear
4:35 AM19.4 °F13.3 °F77 %30.32 in10.0 miCalmClear
5:15 AM18.7 °F13.1 °F79 %30.34 in10.0 miCalmClear
5:35 AM18.1 °F12.4 °F78 %30.33 in10.0 miCalmClear
6:15 AM17.1 °F12.7 °F83 %30.34 in10.0 miCalmClear
6:35 AM17.4 °F13.1 °F83 %30.34 in10.0 miCalmClear
6:55 AM17.1 °F13.6 °F86 %30.35 in10.0 miCalmClear
7:15 AM17.1 °F13.5 °F86 %30.36 in10.0 miCalmClear
7:35 AM16.9 °F13.3 °F86 %30.36 in10.0 miCalmClear
7:55 AM16.7 °F13.8 °F88 %30.36 in10.0 miCalmClear
8:15 AM19.8 °F15.3 °F83 %30.35 in10.0 miCalmClear
8:35 AM22.1 °F16.9 °F80 %30.36 in10.0 miCalmClear
8:55 AM24.4 °F14.2 °F65 %30.37 in10.0 miCalmClear
9:15 AM27.1 °F12.6 °F54 %30.37 in10.0 miCalmClear
9:35 AM29.3 °F6.6 °F38 %30.38 in10.0 miCalmClear
9:55 AM30.4 °F4.6 °F34 %30.39 in10.0 miCalmClear
10:15 AM30.6 °F5.0 °F34 %30.39 in10.0 miCalmClear
10:35 AM31.6 °F5.2 °F33 %30.38 in10.0 miCalmClear
10:55 AM32.0 °F4.8 °F32 %30.38 in10.0 miWest (260°)3.5 mphClear
11:15 AM32.9 °F4.6 °F30 %30.38 in10.0 miCalmClear
11:55 AM34.9 °F4.3 °F28 %30.34 in10.0 miSouth (190°)4.6 mphClear
12:15 PM37.2 °F5.7 °F27 %30.32 in10.0 miSW (230°)3.5 mphClear
12:35 PM36.9 °F4.6 °F26 %30.31 in10.0 miCalmClear
12:55 PM37.9 °F6.6 °F27 %30.30 in10.0 miWest (270°)10.4 mphClear
1:15 PM39.2 °F7.7 °F27 %30.27 in10.0 miNW (310°)10.4 mphClear
1:35 PM39.6 °F7.9 °F27 %30.26 in10.0 miWest (280°)8.1 mphClear
1:55 PM40.1 °F8.6 °F27 %30.25 in10.0 miWest (270°)9.2 mph17.3 mphClear
2:15 PM39.4 °F8.6 °F28 %30.25 in10.0 miWest (280°)8.1 mphClear
2:55 PM40.3 °F9.5 °F28 %30.23 in10.0 miWest (260°)6.9 mphClear
3:15 PM41.5 °F10.0 °F28 %30.23 in10.0 miWest (280°)4.6 mphClear
3:35 PM41.9 °F9.3 °F26 %30.22 in10.0 miSW (220°)4.6 mphClear
3:55 PM42.1 °F9.5 °F26 %30.22 in10.0 miSW (220°)5.8 mphClear
4:35 PM42.8 °F12.0 °F29 %30.20 in10.0 miWSW (250°)6.9 mphClear
4:55 PM42.3 °F12.9 °F30 %30.20 in10.0 miWSW (240°)8.1 mphClear
5:15 PM41.0 °F12.7 °F32 %30.21 in10.0 miSW (230°)5.8 mphClear
5:35 PM39.4 °F13.5 °F35 %30.21 in10.0 miSW (230°)3.5 mphClear
5:55 PM36.7 °F14.2 °F40 %30.21 in10.0 miCalmClear
6:15 PM32.4 °F18.0 °F55 %30.20 in10.0 miCalmClear
6:35 PM32.0 °F19.0 °F59 %30.19 in10.0 miCalmClear
7:15 PM28.6 °F17.4 °F63 %30.18 in10.0 miCalmClear
7:55 PM28.4 °F17.4 °F63 %30.16 in10.0 miCalmClear
8:15 PM30.7 °F16.7 °F56 %30.16 in10.0 miCalmClear
8:35 PM28.0 °F17.6 °F65 %30.16 in10.0 miCalmClear
8:55 PM27.7 °F16.7 °F63 %30.14 in10.0 miCalmClear
9:15 PM27.9 °F18.9 °F69 %30.14 in10.0 miCalmClear
9:35 PM27.5 °F16.7 °F64 %30.14 in10.0 miCalmClear
9:55 PM27.3 °F17.8 °F67 %30.12 in10.0 miCalmClear
10:15 PM27.1 °F18.3 °F69 %30.11 in10.0 miCalmClear
10:35 PM27.3 °F17.2 °F66 %30.11 in10.0 miCalmClear
10:55 PM26.6 °F18.0 °F70 %30.11 in10.0 miCalmClear
11:15 PM26.2 °F18.7 °F73 %30.09 in10.0 miCalmClear
11:35 PM28.6 °F18.1 °F65 %30.08 in10.0 miCalmClear
11:55 PM29.7 °F17.4 °F60 %30.06 in10.0 miCalmClear
Hourly data recorded from KTTA, located miles away from Siler City, North Carolina







STORIES FROM OUR PARTNERS